Weather History for KLHW - June, 2013

Change the Weather History Date:

Monday, June 24, 2013

  Actual Average Record
Temperature  
Mean Temperature 79 °F -  
Max Temperature 88 °F 92 °F 102 °F (1981)
Min Temperature 71 °F 69 °F 59 °F (1972)
Cooling Degree Days 14    
Growing Degree Days 29 (Base 50)    
Moisture  
Dew Point 75 °F    
Average Humidity 79    
Maximum Humidity 100    
Minimum Humidity 61    
Precipitation  
Precipitation 0.01 in - - ()
Sea Level Pressure  
Sea Level Pressure 30.17 in    
Wind  
Wind Speed 5 mph (SSE)    
Max Wind Speed 13 mph    
Max Gust Speed 17 mph    
Visibility 10 miles    
Events Rain , Thunderstorm    
Averages and records for this station are not official NWS values.
T = Trace of Precipitation, MM = Missing Value Source: NWS Daily Summary

Daily Weather History Graph

Daily Weather History Graph

Search for Another Location

Airport or City:

Trip Planner

Search our weather history database for the weather conditions in past years. The results will help you decide how hot, cold, wet, or windy it might be!

Date:

Astronomy

Jun. 24, 2013 Rise Set
Actual Time 6:21 AM EDT 8:35 PM EDT
Civil Twilight 5:53 AM EDT 9:03 PM EDT
Nautical Twilight 5:19 AM EDT 9:38 PM EDT
Astronomical Twilight 4:41 AM EDT 10:15 PM EDT
Moon 9:45 PM EDT (6/24) 7:41 AM EDT (6/24)
Length of Visible Light 15h 10m
Length of Day
14h 13m
Full, 98% of the Moon is Illuminated
Jun 24
Full
Jun 30
Last Quarter
Jul 8
New
Jul 15
First Quarter
Jul 22
Full

Hourly Weather History & Observations

Time (EDT) Temp. Heat Index Dew Point Humidity Pressure Visibility Wind Dir Wind Speed Gust Speed Precip Events Conditions
7:18 AM 71.6 °F - 71.6 °F 100% 30.19 in 3.0 mi Calm Calm - N/A   Clear
7:55 AM 73.4 °F - 73.4 °F 100% 30.20 in 10.0 mi Calm Calm - N/A   Clear
8:55 AM 78.6 °F - 77.2 °F 95% 30.22 in 10.0 mi Variable 5.8 mph - N/A   Clear
9:55 AM 81.7 °F 87.6 °F 74.3 °F 78% 30.22 in 10.0 mi Variable 4.6 mph - N/A   Partly Cloudy
10:50 AM 84.2 °F 90.9 °F 73.4 °F 70% 30.22 in 10.0 mi South 6.9 mph - N/A   Mostly Cloudy
10:58 AM 84.0 °F 90.5 °F 73.4 °F 70% 30.22 in 10.0 mi South 3.5 mph - N/A   Mostly Cloudy
11:18 AM 84.2 °F 90.9 °F 73.4 °F 70% 30.22 in 10.0 mi Variable 3.5 mph - N/A   Scattered Clouds
11:58 AM 85.3 °F 92.2 °F 73.4 °F 67% 30.21 in 10.0 mi SW 6.9 mph - N/A   Mostly Cloudy
12:58 PM 87.6 °F 94.8 °F 72.5 °F 61% 30.20 in 10.0 mi SSW 4.6 mph - N/A   Scattered Clouds
1:58 PM 87.3 °F 94.9 °F 73.2 °F 63% 30.17 in 10.0 mi Variable 4.6 mph - N/A   Mostly Cloudy
2:19 PM 86.0 °F 93.4 °F 73.4 °F 66% 30.16 in 10.0 mi South 6.9 mph - N/A   Light Drizzle
2:35 PM 87.8 °F 95.6 °F 73.4 °F 62% 30.16 in 10.0 mi SSW 3.5 mph - N/A   Mostly Cloudy
2:47 PM 87.8 °F 97.6 °F 75.2 °F 66% 30.15 in 10.0 mi SSE 10.4 mph - N/A   Light Drizzle
2:58 PM 86.0 °F 94.2 °F 74.3 °F 68% 30.15 in 10.0 mi South 6.9 mph - 0.00 in   Light Drizzle
2:59 PM 84.2 °F 92.3 °F 75.2 °F 74% 30.15 in 10.0 mi South 5.8 mph - N/A Rain , Thunderstorm Light Thunderstorms and Rain
3:16 PM 86.0 °F 96.9 °F 77.0 °F 74% 30.14 in 10.0 mi SSE 11.5 mph 17.3 mph N/A Thunderstorm Thunderstorm
3:21 PM 84.2 °F 92.3 °F 75.2 °F 74% 30.14 in 10.0 mi SSE 10.4 mph 17.3 mph N/A   Scattered Clouds
3:22 PM 84.2 °F 92.3 °F 75.2 °F 74% 30.14 in 10.0 mi SE 10.4 mph 17.3 mph N/A Thunderstorm Thunderstorm
3:26 PM 84.2 °F 92.3 °F 75.2 °F 74% 30.14 in 10.0 mi ESE 10.4 mph - N/A Rain , Thunderstorm Light Thunderstorms and Rain
3:37 PM 84.2 °F 90.9 °F 73.4 °F 70% 30.14 in 10.0 mi ESE 9.2 mph - N/A   Scattered Clouds
3:57 PM 86.0 °F 95.1 °F 75.2 °F 70% 30.14 in 10.0 mi ESE 10.4 mph - N/A Thunderstorm Thunderstorm
3:58 PM 86.0 °F 95.1 °F 75.2 °F 70% 30.14 in 10.0 mi ESE 10.4 mph - 0.00 in Thunderstorm Thunderstorm
4:28 PM 86.0 °F 95.1 °F 75.2 °F 70% 30.14 in 10.0 mi ESE 12.7 mph - N/A   Partly Cloudy
4:58 PM 85.6 °F 93.8 °F 74.5 °F 69% 30.13 in 10.0 mi East 8.1 mph - N/A   Partly Cloudy
5:34 PM 84.2 °F 92.3 °F 75.2 °F 74% 30.12 in 10.0 mi ESE 6.9 mph - N/A   Light Drizzle
5:57 PM 82.4 °F 90.9 °F 77.0 °F 84% 30.14 in 10.0 mi ESE 4.6 mph - N/A   Scattered Clouds
5:58 PM 82.4 °F 90.9 °F 77.0 °F 84% 30.14 in 10.0 mi ESE 5.8 mph - 0.00 in   Scattered Clouds
6:58 PM 80.8 °F 87.2 °F 76.5 °F 87% 30.14 in 10.0 mi ESE 4.6 mph - 0.00 in   Partly Cloudy
7:45 PM 80.6 °F 87.1 °F 77.0 °F 89% 30.15 in 10.0 mi ESE 3.5 mph - N/A Rain Light Rain
7:58 PM 79.5 °F - 77.0 °F 92% 30.15 in 10.0 mi South 3.5 mph - 0.00 in Rain Light Rain
8:58 PM 78.3 °F - 77.9 °F 99% 30.17 in 10.0 mi SW 2.3 mph - 0.01 in Rain Light Rain
9:13 PM 78.8 °F - 78.8 °F 100% 30.17 in 10.0 mi West 4.6 mph - N/A   Scattered Clouds
9:58 PM 75.9 °F - 75.9 °F 100% 30.18 in 10.0 mi NW 1.2 mph - 0.00 in   Clear
10:58 PM 75.2 °F - 75.2 °F 100% 30.17 in 10.0 mi Calm Calm - N/A   Mostly Cloudy
11:58 PM 74.8 °F - 74.8 °F 100% 30.18 in 10.0 mi SSW 3.5 mph - N/A   Overcast